This demonstration page uses our WeatherBlox Daily Observations layout. Learn more.

Left ArrowRight Arrow

39.95238, -75.16362

Hourly Observations for May 15, 2016

Temp ( °F °C ) Dew Point ( °F °C ) Humidity (%) Winds ( mph kmh ) Pressure ( in mb ) Visibility ( mi km ) Precip ( " mm )
12:54 am 00:54 Partly Cloudy 55 12.8 42 5.6 62 62 WNW 12 19 29.75 1007 10 16 0.00 0.00
1:54 am 01:54 Partly Cloudy 53 11.7 36 2.2 52 52 WNW 15 24 29.77 1008 10 16 0.00 0.00
2:54 am 02:54 Mostly Clear 51 10.6 35 1.7 54 54 W 12 19 29.78 1009 10 16 0.00 0.00
3:54 am 03:54 Mostly Clear 51 10.6 34 1.1 52 52 WNW 10 17 29.79 1009 10 16 0.00 0.00
4:54 am 04:54 Mostly Clear 49 9.4 35 1.7 59 59 W 14 22 29.83 1010 10 16 0.00 0.00
5:54 am 05:54 Mostly Sunny 48 8.9 36 2.2 63 63 W 13 20 29.85 1011 10 16 0.00 0.00
6:54 am 06:54 Mostly Sunny 49 9.4 36 2.2 61 61 WNW 15 24 29.85 1011 10 16 0.00 0.00
7:54 am 07:54 Partly Cloudy 51 10.6 36 2.2 56 56 W 17 28 29.87 1011 10 16 0.00 0.00
8:54 am 08:54 Partly Cloudy 52 11.1 34 1.1 50 50 W 18 30 29.87 1012 10 16 0.00 0.00
9:54 am 09:54 Mostly Cloudy 54 12.2 33 0.6 45 45 WNW 21 33 29.86 1011 10 16 0.00 0.00
10:54 am 10:54 Mostly Cloudy 55 12.8 32 0 42 42 WNW 17 28 29.86 1011 10 16 0.00 0.00
11:54 am 11:54 Mostly Cloudy 54 12.2 30 -1.1 40 40 WNW 17 28 29.87 1011 10 16 0.00 0.00
12:54 pm 12:54 Mostly Cloudy 56 13.3 29 -1.7 36 36 WNW 21 33 29.86 1011 10 16 0.00 0.00
1:54 pm 13:54 Mostly Cloudy 57 13.9 28 -2.2 33 33 W 22 35 29.86 1011 10 16 0.00 0.00
2:54 pm 14:54 Mostly Cloudy 57 13.9 24 -4.4 28 28 W 28 44 29.87 1011 10 16 0.00 0.00
3:54 pm 15:54 Mostly Cloudy 58 14.4 24 -4.4 27 27 W 20 31 29.87 1011 10 16 0.00 0.00
4:54 pm 16:54 Mostly Cloudy 58 14.4 23 -5 26 26 W 22 35 29.87 1012 10 16 0.00 0.00
5:54 pm 17:54 Mostly Cloudy 57 13.9 21 -6.1 25 25 W 20 31 29.90 1013 10 16 0.00 0.00
6:54 pm 18:54 Mostly Cloudy 55 12.8 30 -1.1 38 38 NNW 22 35 29.93 1014 10 16 0.00 0.00
7:00 pm 19:00 Mostly Cloudy 54 12 30 -1 41 41 NNW 20 31 29.94 1014 10 16 0.00 0.00
7:54 pm 19:54 Mostly Cloudy 54 12.2 27 -2.8 35 35 NW 16 26 29.96 1015 10 16 0.00 0.00
8:54 pm 20:54 Mostly Clear 51 10.6 27 -2.8 39 39 NW 21 33 30.00 1016 10 16 0.00 0.00
9:54 pm 21:54 Clear 50 10 27 -2.8 41 41 WNW 12 19 30.04 1017 10 16 0.00 0.00
10:54 pm 22:54 Mostly Clear 49 9.4 29 -1.7 46 46 W 10 17 30.05 1018 10 16 0.00 0.00
11:54 pm 23:54 Partly Cloudy 47 8.3 30 -1.1 52 52 W 13 20 30.06 1018 10 16 0.00 0.00

Powered by AerisWeather